Flag for Japan Weather past 2 weeks in Hamamatsu, Japan

Now
71 °F

Light rain. Cloudy.


Feels Like: 67 °F
Forecast: 67 / 79 °F
Wind: 2 mph from Southeast

Location: Omaezaki

Current Time: Oct 1, 2014 at 7:58:19 AM

Latest Report: Oct 1, 2014 at 7:00 AM


Visibility: 5 mi

Pressure: 30.00 "Hg

Humidity: 91%

Dew point: 68 °F

Location of HamamatsuLocation

Historic Weather in Hamamatsu — Graph

°F

Hamamatsu temperature yesterday

Maximum temperature yesterday: 78 °F (at 3:00 PM)
Minimum temperature yesterday: 66 °F (at 5:00 AM)
Average temperature yesterday: 72 °F

Past Weeks' High & Low Weather Summary

 TemperatureHumidityPressure
High80 °F (Sep 17, 2:00 PM)100% (Sep 24, 7:00 PM)30.18 "Hg (Sep 24, 7:00 PM)
Low65 °F (Sep 22, 1:00 AM)46% (Sep 21, 4:00 PM)29.59 "Hg (Sep 25, 3:00 PM)
Average73 °F73%29.92 "Hg
* Reported Sep 16 5:00 AM — Oct 1 5:00 AM, Hamamatsu, Weather by CustomWeather, © 2014

Note: Actual official high and low records may vary slightly from our data, if they occured in-between our weather recording intervals... More about our weather records

Advertising

Hamamatsu weather history for previous 24 hours

 ConditionsComfort  
Time TempWeatherWind HumidityBarometerVisibility
5:00 AM
Oct 1
70 °FLight rain. Cloudy.3 mph95%29.98 "Hg2 mi
4:00 AM72 °FLight rain. Overcast.2 mph91%29.97 "Hg3 mi
3:00 AM72 °FMild.5 mph81%29.95 "Hg6 mi
2:00 AM72 °FMild.3 mph81%29.95 "Hg6 mi
1:00 AM72 °FMild.3 mph80%29.95 "Hg7 mi
12:00 AM73 °FFog.5 mph87%29.94 "Hg6 mi
11:00 PM
Sep 30
73 °FMild.3 mph85%29.95 "Hg6 mi
10:00 PM73 °FMild.5 mph81%29.95 "Hg6 mi
9:00 PM74 °FMild.5 mph80%29.95 "Hg6 mi
8:00 PM74 °FMild.5 mph76%29.94 "Hg7 mi
7:00 PM75 °FMild.2 mph73%29.93 "Hg7 mi
6:00 PM74 °FMild.1 mph71%29.91 "Hg7 mi
5:00 PM76 °FMild.3 mph65%29.90 "Hg8 mi
4:00 PM77 °FWarm.5 mph61%29.88 "Hg9 mi
3:00 PM78 °FWarm.6 mph63%29.87 "Hg9 mi
2:00 PM77 °FWarm.7 mph67%29.86 "Hg7 mi
1:00 PM77 °FMild.6 mph69%29.87 "Hg7 mi
12:00 PM76 °FMild.7 mph70%29.87 "Hg6 mi
11:00 AM75 °FSmoke.5 mph72%29.88 "Hg6 mi
10:00 AM74 °FMild.5 mph76%29.89 "Hg6 mi
9:00 AM74 °FFog.3 mph78%29.89 "Hg4 mi
8:00 AM72 °FFog.3 mph81%29.88 "Hg6 mi
7:00 AM69 °FFog.3 mph90%29.88 "Hg4 mi
Weather by CustomWeather, © 2014

See weather overviewHow to use our weather pages